CZ-6A DEB, 54580

Orbit data source: Space-Track

CZ-6A DEB, 54580 is space debris in SSO originally from a launch on Fri, 11 Nov 2022 UTC launched from the Taiyaun Space Center, China (TSC). Debris objects in space refer to the collection of defunct objects orbiting the Earth. Examples of debris include non-operational satellites, rocket bodies, and fragments generated from explosions, collisions, or faulty payload assembly.

Loading next visibility...
Identifier
54580, 2022-151MG
Orbit
SSO
Country
Flag of CNCN / PRC
Related business
Manufacturer
SAST
Mission
Spacecraft
Bus & Motor
Unknown
Mass
Unknown
Launch date (UTC)
2022-11-11 (3 years ago)
Launch vehicle
Unknown
Launch site
Taiyaun Space Center, China (TSC)
Object type
Payload
Rocket body
Debris
Shape & HBR
Unknown shape, 0.1 m
Radar Cross Section
Small (<0.1 m²)

Expand to show TLE details & history
Last TLE update: 1 day ago

TLE from 1 day ago
0 CZ-6A DEB
1 54580U 22151MG  25350.01273840  .00003951  00000-0  17355-2 0  9994
2 54580  98.8666 359.4419 0089010 170.4746 189.8145 14.22022166158768
Epoch: 2025-12-16T00:18Z
TLE epoch observation values (Epoch: 2025-12-16T00:18:20.597Z)
Latitude
-0.00003°
Longitude
-90.04697°
Altitude
884.584 km
Speed
7.377 km/s
True Right ascension
23h 57m 46s
True Declination
0° 00' 00"
Sunlit
Object was in daylight at epoch
Visualization orbit readout
Latitude
Unknown
Longitude
Unknown
Altitude
Unknown
Speed
Unknown
Apparent Right ascension
Unknown
Apparent Declination
Unknown
Sunlit
N/A
Visualization observer readout
Local Sidereal Time
23:46:33
Azimuth
Unknown
Elevation
Unknown
Doppler factor
Unknown
Orbital elements
Apogee altitude
879.717 km
Perigee altitude
751.653 km
Semi-major axis
7,193.822 km
Eccentricity
0.0089
Inclination
98.8666°
RAAN
359.4419°
Arg. of periapsis
170.4746°
True anomaly
189.64252°
Mean anomaly
189.8145°
Eccentric anomaly
189.72832°
Mean motion
3.55716 °/min
Orbital period
101.2 mins
BSTAR
0.0017355
Loading maneuver chart data...
Computing Atmospheric mass density...
Loading historical data...
Loading historical data...
Loading historical data...
Loading historical data...
Loading historical data...
Loading historical data...
Loading historical data...

Documentation

Showing up to 5 results
|